Regional Weather Roundup
Issued by NWS

Home | Current Version | Previous Version | Graphics & Text | Print | Product List | Glossary On
Versions: 1 2 3 4 5 6 7 8 9 10 11 12 13 14 15 16 17 18 19 20 21 22 23 24 25 26 27 28 29 30 31 32 33 34 35 36 37 38 39 40
000
ASUS45 KBOU 211007
RWRCO

WEATHER ROUNDUP FOR COLORADO
NATIONAL WEATHER SERVICE DENVER/BOULDER CO
400 AM MDT TUE OCT 21 2014

NOTE: "FAIR" INDICATES FEW OR NO CLOUDS BELOW 12000 FEET WITH NO
SIGNIFICANT WEATHER AND/OR OBSTRUCTIONS TO VISIBILITY.

COZ001>005-013-030-031-211100-
...NORTHWEST COLORADO...

CITY           SKY/WX    TMP DP  RH WIND       PRES   REMARKS
CRAIG          CLOUDY    38  35  89 CALM      30.11F
HAYDEN         CLOUDY    43  34  70 E8        30.12S
MEEKER         PTCLDY    44  35  70 CALM      30.12F
MOUNT WERNER   NOT AVBL
STEAMBOAT SPGS CLOUDY    37  33  84 CALM      30.13F
WALDEN         CLEAR     32  28  86 SE5       30.19F WCI  27
$$

COZ006>008-011-211100-
...WEST CENTRAL VALLEYS...

CITY           SKY/WX    TMP DP  RH WIND       PRES   REMARKS
GRAND JUNCTION PTCLDY    56  37  49 E14       30.04F
MONTROSE       CLOUDY    53  38  56 SE7       30.12F
EAGLE          MOCLDY    41  36  81 N3        30.18S
RIFLE          PTCLDY    45  37  73 SW5       30.09F
DELTA          CLOUDY    54  42  63 N7        30.10F
NUCLA          NOT AVBL
$$

COZ017>023-064>068-211100-
...SOUTHWEST COLORADO...

CITY           SKY/WX    TMP DP  RH WIND       PRES   REMARKS
DURANGO        CLOUDY    50  43  77 CALM      30.20F
CORTEZ         CLOUDY    55  42  61 CALM      30.14F
PAGOSA SPRINGS CLOUDY    47  44  90 CALM      30.26F
TELLURIDE      CLOUDY    47  38  72 SE8       30.30S
WOLF CREEK PAS FOG       32  32 100 SW10      30.41F VSB 1/2 WCI  24
$$

COZ009-010-012-014-032>034-037-058>063-211100-
...CENTRAL COLORADO...

CITY           SKY/WX    TMP DP  RH WIND       PRES   REMARKS
ASPEN          MOCLDY    39  32  76 S7        30.19F
BUENA VISTA    PTCLDY    36  31  84 NW5       30.24F
COPPER MTN     CLEAR     41  28  60 S17       30.40S
BERTHOUD PASS  FAIR      32  30  93 W14       30.42F WCI  22
COTTONWOOD PAS PTCLDY    45  32  61 CALM      30.31S
GUNNISON       MOCLDY    37  30  75 CALM      30.26S
KREMMLING      PTCLDY    32  28  86 CALM        N/A
LEADVILLE      PTCLDY    29  27  92 SW3       30.30F
SALIDA         PTCLDY    42  34  72 CALM      30.29F
SUNLIGHT       PTCLDY    41  34  75 CALM      30.34F
WILKERSON PASS NOT AVBL
$$

COZ069>075-211100-
...SAN LUIS VALLEY/SANGRE DE CRISTO MOUNTAINS...

CITY           SKY/WX    TMP DP  RH WIND       PRES   REMARKS
ALAMOSA        CLEAR     37  32  82 CALM      30.23S
LA VETA PASS   CLEAR     37  34  87 S7        30.32F
SAGUACHE       PTCLDY    36  32  87 NW7       30.26S
$$

COZ035-036-038>040-211100-
...NORTHERN COLORADO FRONT RANGE...

CITY           SKY/WX    TMP DP  RH WIND       PRES   REMARKS
DENVER INTL AP CLEAR     56  37  49 SW17      30.02F
DMNS CITY PARK   N/A     55  35  47 SW5G12    30.03S
AURORA         PTCLDY    52  38  59 S14       30.04F
FRONT RANGE AP NOT AVBL
ERIE MUNI ARPT CLEAR     41  37  88 CALM      30.02S
BOULDER MUN AP CLEAR     48  36  61 SW5       30.02F
CENTENNIAL     CLEAR     50  36  58 S8        30.05F
BROOMFIELD     CLEAR     52  36  54 CALM      30.04S
FORT COLLINS   CLEAR     45  36  70 N3        30.03S
LONGMONT       CLEAR     43  38  83 CALM      30.04S
$$

COZ041-046-047-076>085-087-088-211100-
...PIKES PEAK/PALMER DIVIDE AND SOUTHERN FOOTHILLS...

CITY           SKY/WX    TMP DP  RH WIND       PRES   REMARKS
COLO. SPRINGS  CLEAR     42  39  89 N7        30.13F
A. F. ACADEMY  CLEAR     38  36  90 NW5       30.14S
ELLICOTT       CLEAR     41  40  96 CALM      30.11F
FALCON         CLEAR     39  38  96 NW5       30.15F
FORT CARSON    CLEAR     43  37  80 NW8       30.10F
LIMON          CLEAR     42  41  96 E6        30.09F
MONUMENT HILL  CLEAR     41  37  87 SW8       30.13S
TRINIDAD       CLEAR     51  41  68 SW12      30.12S
$$

COZ042>045-048>051-090-091-211100-
...NORTHEAST COLORADO...

CITY           SKY/WX    TMP DP  RH WIND       PRES   REMARKS
GREELEY ARPT   CLEAR     39  30  70 NW7       30.02S
AKRON          CLEAR     53  48  83 S14       30.02F
BURLINGTON     CLEAR     52  48  86 S12       30.07F
WRAY           CLEAR     52  45  77 CALM      30.03F
STERLING       CLEAR     45  43  93 CALM      30.00S
HOLYOKE        CLEAR     46  41  81 S8        30.03F
FORT MORGAN    CLEAR     48  42  77 CALM      30.02S
$$

COZ086-089-092>099-211100-
...SOUTHEAST COLORADO...

CITY           SKY/WX    TMP DP  RH WIND       PRES   REMARKS
PUEBLO         CLEAR     46  41  82 N3        30.06F
LA JUNTA       CLEAR     48  46  93 E3        30.06F
LAMAR          CLEAR     46  45  96 E8        30.05F FOG
SPRINGFIELD      N/A     44  44 100 SW5       30.08F
$$



USA.gov is the U.S. government's official web portal to all federal, state and local government web resources and services.